| time (UTC) | temp C | wind direction | speed KPH | gust KPH | rain 1hr cm | rain 24hr cm | rain mn cm | humidity % | barometer mb |
| 20260502190021 | 18 | 255 | 16.1 | 24.1 | 0.00 | 0.00 | 0.00 | 42 | 1008.9 |
| 20260502184520 | 18 | 276 | 11.3 | 17.7 | 0.00 | 0.00 | 0.00 | 42 | 1009.1 |
| 20260502183023 | 18 | 257 | 11.3 | 19.3 | 0.00 | 0.00 | 0.00 | 43 | 1009.1 |
| 20260502181515 | 18 | 214 | 0.0 | 0.0 | 0.00 | 0.00 | 0.00 | 42 | 1009.6 |
| 20260502163008 | 18 | 269 | 19.3 | 32.2 | 0.00 | 0.00 | 0.00 | 40 | 1010.1 |
| 20260502161505 | 18 | 290 | 14.5 | 27.4 | 0.00 | 0.00 | 0.00 | 41 | 1010.3 |
| 20260502151609 | 16 | 270 | 0.0 | 14.5 | 0.00 | 0.00 | 0.00 | 47 | 1011.3 |
| 20260502123006 | 4 | 214 | 0.0 | 3.2 | 0.00 | 0.00 | 0.00 | 72 | 1013.7 |
| 20260502121505 | 4 | 198 | 1.6 | 11.3 | 0.00 | 0.00 | 0.00 | 72 | 1013.9 |
| 20260502114501 | 4 | 198 | 0.0 | 17.7 | 0.00 | 0.00 | 0.00 | 71 | 1014.2 |
| 20260502113118 | 3 | 214 | 0.0 | 0.0 | 0.00 | 0.00 | 0.00 | 75 | 1014.2 |
| 20260502111602 | 2 | 229 | 0.0 | 0.0 | 0.00 | 0.00 | 0.00 | 76 | 1014.3 |
| 20260502110056 | 2 | 234 | 0.0 | 0.0 | 0.00 | 0.00 | 0.00 | 77 | 1014.5 |
| 20260502104606 | 2 | 212 | 0.0 | 0.0 | 0.00 | 0.00 | 0.00 | 75 | 1014.5 |
| 20260502103050 | 2 | 203 | 0.0 | 0.0 | 0.00 | 0.00 | 0.00 | 73 | 1014.7 |
| 20260502101604 | 3 | 190 | 3.2 | 17.7 | 0.00 | 0.00 | 0.00 | 70 | 1014.7 |
| 20260502071519 | 3 | 219 | 0.0 | 0.0 | 0.00 | 0.00 | 0.00 | 67 | 1017.4 |
| 20260502070035 | 3 | 217 | 0.0 | 0.0 | 0.00 | 0.00 | 0.00 | 67 | 1017.6 |
| 20260502064516 | 3 | 223 | 0.0 | 0.0 | 0.00 | 0.00 | 0.00 | 68 | 1017.9 |
| 20260502063019 | 3 | 224 | 0.0 | 0.0 | 0.00 | 0.00 | 0.00 | 68 | 1017.9 |
| 20260502061514 | 3 | 205 | 0.0 | 0.0 | 0.00 | 0.00 | 0.00 | 68 | 1018.0 |
| 20260502060022 | 3 | 217 | 0.0 | 0.0 | 0.00 | 0.00 | 0.00 | 67 | 1018.2 |
| 20260502054506 | 4 | 226 | 0.0 | 0.0 | 0.00 | 0.00 | 0.00 | 65 | 1018.3 |
| 20260502053003 | 4 | 223 | 0.0 | 0.0 | 0.00 | 0.00 | 0.00 | 64 | 1018.3 |
| 20260502051502 | 5 | 193 | 0.0 | 0.0 | 0.00 | 0.00 | 0.00 | 63 | 1018.2 |
| 20260502050059 | 5 | 240 | 0.0 | 0.0 | 0.00 | 0.00 | 0.00 | 62 | 1018.4 |
| 20260502044557 | 5 | 220 | 0.0 | 0.0 | 0.00 | 0.00 | 0.00 | 62 | 1018.5 |
| 20260502043111 | 3 | 136 | 0.0 | 0.0 | 0.00 | 0.00 | 0.00 | 66 | 1018.4 |
| 20260502041619 | 3 | 95 | 0.0 | 0.0 | 0.00 | 0.00 | 0.00 | 68 | 1018.5 |
| 20260502040059 | 3 | 86 | 0.0 | 0.0 | 0.00 | 0.00 | 0.00 | 69 | 1018.6 |
| 20260502034554 | 3 | 86 | 0.0 | 0.0 | 0.00 | 0.00 | 0.00 | 67 | 1018.7 |
| 20260502033053 | 4 | 86 | 0.0 | 0.0 | 0.00 | 0.00 | 0.00 | 64 | 1018.6 |
| 20260502031552 | 4 | 86 | 0.0 | 0.0 | 0.00 | 0.00 | 0.00 | 61 | 1018.6 |
| 20260502030113 | 5 | 86 | 0.0 | 0.0 | 0.00 | 0.00 | 0.00 | 59 | 1018.9 |
| 20260502024602 | 6 | 86 | 0.0 | 0.0 | 0.00 | 0.00 | 0.00 | 58 | 1018.8 |
| 20260502023125 | 5 | 86 | 0.0 | 0.0 | 0.00 | 0.00 | 0.00 | 59 | 1018.8 |
| 20260502021550 | 6 | 86 | 0.0 | 0.0 | 0.00 | 0.00 | 0.00 | 57 | 1018.7 |
| 20260502020049 | 8 | 86 | 0.0 | 0.0 | 0.00 | 0.00 | 0.00 | 54 | 1018.7 |
| 20260502014555 | 9 | 86 | 0.0 | 0.0 | 0.00 | 0.00 | 0.00 | 51 | 1018.8 |
| 20260502013055 | 11 | 86 | 0.0 | 0.0 | 0.00 | 0.00 | 0.00 | 46 | 1018.8 |
| 20260502011603 | 12 | 86 | 0.0 | 0.0 | 0.00 | 0.00 | 0.00 | 39 | 1019.0 |
| 20260502010045 | 12 | 86 | 0.0 | 0.0 | 0.00 | 0.00 | 0.00 | 37 | 1019.0 |
| 20260502004544 | 13 | 48 | 0.0 | 0.0 | 0.00 | 0.00 | 0.00 | 35 | 1019.1 |
| 20260502003041 | 13 | 345 | 0.0 | 0.0 | 0.00 | 0.00 | 0.00 | 36 | 1019.2 |
| 20260502001544 | 13 | 10 | 0.0 | 0.0 | 0.00 | 0.00 | 0.00 | 34 | 1019.2 |
| 20260502000055 | 13 | 51 | 0.0 | 0.0 | 0.00 | 0.00 | 0.00 | 33 | 1019.2 |
| 20260501234539 | 13 | 309 | 0.0 | 6.4 | 0.00 | 0.00 | 0.00 | 33 | 1019.4 |
| 20260501233046 | 13 | 327 | 0.0 | 0.0 | 0.00 | 0.00 | 0.00 | 34 | 1019.5 |
| 20260501231535 | 13 | 316 | 0.0 | 6.4 | 0.00 | 0.00 | 0.00 | 34 | 1019.5 |
| 20260501230109 | 13 | 300 | 0.0 | 0.0 | 0.00 | 0.00 | 0.00 | 34 | 1019.5 |
| 20260501224539 | 13 | 328 | 0.0 | 0.0 | 0.00 | 0.00 | 0.00 | 37 | 1019.7 |
| 20260501223029 | 13 | 27 | 0.0 | 0.0 | 0.00 | 0.00 | 0.00 | 35 | 1019.7 |
| 20260501221528 | 13 | 49 | 0.0 | 0.0 | 0.00 | 0.00 | 0.00 | 35 | 1019.8 |
| 20260501220027 | 13 | 1 | 0.0 | 0.0 | 0.00 | 0.00 | 0.00 | 37 | 1019.8 |
| 20260501214524 | 13 | 302 | 0.0 | 3.2 | 0.00 | 0.00 | 0.00 | 39 | 1020.0 |
| 20260501213027 | 12 | 107 | 0.0 | 0.0 | 0.00 | 0.00 | 0.00 | 41 | 1020.1 |
| 20260501211520 | 12 | 121 | 0.0 | 0.0 | 0.00 | 0.00 | 0.00 | 39 | 1020.1 |
| 20260501210019 | 12 | 159 | 0.0 | 0.0 | 0.00 | 0.00 | 0.00 | 37 | 1020.2 |
| 20260501204516 | 12 | 300 | 0.0 | 0.0 | 0.00 | 0.00 | 0.00 | 40 | 1020.5 |
| 20260501203023 | 12 | 338 | 0.0 | 1.6 | 0.00 | 0.00 | 0.00 | 40 | 1020.6 |
| 20260501201514 | 12 | 53 | 0.0 | 0.0 | 0.00 | 0.00 | 0.00 | 41 | 1020.8 |
| 20260501200013 | 12 | 88 | 0.0 | 0.0 | 0.00 | 0.00 | 0.00 | 41 | 1020.7 |
| 20260501194512 | 11 | 134 | 0.0 | 4.8 | 0.00 | 0.00 | 0.00 | 43 | 1021.0 |
| 20260501193010 | 11 | 359 | 0.0 | 11.3 | 0.00 | 0.00 | 0.00 | 47 | 1021.1 |
| 20260501191505 | 11 | 333 | 0.0 | 0.0 | 0.00 | 0.00 | 0.00 | 45 | 1021.2 |